La Plata, MO

6:37 AM CDT on August 27, 2016 (GMT -0500)
Kirksville Regional

Weather History for KIRK - November, 2014

Change the Weather History Date:

Thursday, November 20, 2014

  Actual Average Record
Temperature  
Mean Temperature 25 °F 38 °F  
Max Temperature 35 °F 48 °F 74 °F (1933)
Min Temperature 15 °F 29 °F 9 °F (2000)
Degree Days  
Heating Degree Days 40 27  
Month to date heating degree days 605 442  
Since 1 July heating degree days 1037 931  
Cooling Degree Days 0 0  
Month to date cooling degree days 0 0  
Year to date cooling degree days 958 939  
Moisture  
Dew Point 15 °F    
Average Humidity 64    
Maximum Humidity 84    
Minimum Humidity 44    
Precipitation  
Precipitation 0.00 in 0.07 in 1.75 in (1979)
Month to date precipitation 0.32 1.96  
Year to date precipitation 42.52 36.80  
Sea Level Pressure  
Sea Level Pressure 30.26 in    
Wind  
Wind Speed 6 mph (WNW)    
Max Wind Speed 14 mph    
Max Gust Speed 19 mph    
Visibility 10 miles    
Events      
T = Trace of Precipitation, MM = Missing Value Source: NWS Daily Summary

Daily Weather History Graph

Daily Weather History Graph

Search for Another Location

Airport or City:

Trip Planner

Search our weather history database for the weather conditions in past years. The results will help you decide how hot, cold, wet, or windy it might be!

Date:

Astronomy

Nov. 20, 2014 Rise Set
Actual Time 7:01 AM CST 4:50 PM CST
Civil Twilight 6:31 AM CST 5:19 PM CST
Nautical Twilight 5:58 AM CST 5:52 PM CST
Astronomical Twilight 5:26 AM CST 6:24 PM CST
Moon 4:56 AM CST (11/20) 3:54 PM CST (11/20)
Length of Visible Light 10h 47m
Length of Day
9h 48m
Waning Crescent, 4% of the Moon is Illuminated
Nov 20
Waning Crescent
Nov 22
New
Nov 29
First Quarter
Dec 6
Full
Dec 14
Last Quarter

Hourly Weather History & Observations

Time (CST) Temp. Windchill Dew Point Humidity Pressure Visibility Wind Dir Wind Speed Gust Speed Precip Events Conditions
12:55 AM 25.0 °F 16.3 °F 14.0 °F 63% 30.22 in 10.0 mi WNW 8.1 mph - N/A   Overcast
1:55 AM 25.0 °F 19.3 °F 15.1 °F 66% 30.22 in 10.0 mi NW 4.6 mph - N/A   Overcast
2:18 AM 25.0 °F 20.7 °F 15.1 °F 66% 30.17 in 10.0 mi WNW 3.5 mph - N/A   Overcast
2:55 AM 25.0 °F 20.7 °F 16.0 °F 69% 30.22 in 10.0 mi West 3.5 mph - N/A   Overcast
3:44 AM 25.0 °F 18.1 °F 15.1 °F 66% 30.16 in 10.0 mi WSW 5.8 mph - N/A   Overcast
3:55 AM 25.0 °F 20.7 °F 16.0 °F 69% 30.21 in 10.0 mi WSW 3.5 mph - N/A   Overcast
4:55 AM 23.0 °F 17.0 °F 16.0 °F 74% 30.22 in 10.0 mi WSW 4.6 mph - N/A   Overcast
5:55 AM 21.9 °F 14.5 °F 16.0 °F 78% 30.22 in 10.0 mi West 5.8 mph - N/A   Overcast
6:55 AM 21.0 °F 13.4 °F 16.0 °F 81% 30.24 in 10.0 mi West 5.8 mph - N/A   Overcast
7:55 AM 19.9 °F 13.4 °F 16.0 °F 85% 30.26 in 10.0 mi SW 4.6 mph - N/A   Mostly Cloudy
8:06 AM 19.9 °F 12.1 °F 17.1 °F 89% 30.21 in 10.0 mi SW 5.8 mph - N/A   Scattered Clouds
8:55 AM 25.0 °F 18.1 °F 16.0 °F 69% 30.27 in 10.0 mi WNW 5.8 mph - N/A   Clear
9:55 AM 27.0 °F 20.5 °F 12.9 °F 56% 30.29 in 10.0 mi WNW 5.8 mph - N/A   Clear
10:55 AM 30.0 °F 21.7 °F 15.1 °F 54% 30.28 in 10.0 mi NW 9.2 mph - N/A   Clear
11:55 AM 30.9 °F 21.7 °F 14.0 °F 50% 30.26 in 10.0 mi WNW 11.5 mph - N/A   Clear
12:55 PM 33.1 °F 24.9 °F 17.1 °F 52% 30.25 in 10.0 mi West 10.4 mph - N/A   Clear
1:55 PM 34.0 °F 26.0 °F 15.1 °F 46% 30.23 in 10.0 mi WNW 10.4 mph - N/A   Clear
2:55 PM 35.1 °F 27.9 °F 15.1 °F 44% 30.23 in 10.0 mi NW 9.2 mph - N/A   Clear
3:55 PM 32.0 °F 25.6 °F 16.0 °F 52% 30.25 in 10.0 mi NW 6.9 mph - N/A   Clear
4:55 PM 28.9 °F 25.2 °F 15.1 °F 56% 30.27 in 10.0 mi NNW 3.5 mph - N/A   Clear
5:55 PM 25.0 °F 19.3 °F 14.0 °F 63% 30.29 in 8.0 mi North 4.6 mph - N/A   Clear
6:55 PM 21.0 °F - 14.0 °F 74% 30.31 in 10.0 mi Calm Calm - N/A   Clear
7:55 PM 19.9 °F - 14.0 °F 78% 30.32 in 10.0 mi Calm Calm - N/A   Clear
8:55 PM 18.0 °F 12.7 °F 14.0 °F 84% 30.33 in 10.0 mi NE 3.5 mph - N/A   Clear
9:55 PM 17.1 °F 7.6 °F 12.0 °F 81% 30.35 in 10.0 mi NE 6.9 mph - N/A   Clear
10:55 PM 19.0 °F 12.3 °F 12.0 °F 74% 30.37 in 10.0 mi ENE 4.6 mph - N/A   Clear
11:55 PM 19.0 °F 12.3 °F 10.9 °F 71% 30.38 in 10.0 mi East 4.6 mph - N/A   Clear